SCP
0 0 0 0 0 0 0 0 0 0 0 0 0 0 0 0 0 0 0 0 0 0 0 0 0 0 0 0 0 0 0 0 0 0 0 0 0 0 0 0 0 0 0
0 0 0 0 0 0 0 0 0 0 0 0 0 0 0 0 0 0 0 0 0 0 0 0 0 0 0 0 0 0 0 0 0 0 0 0 0 0 0 0 0 0 0
0 0 0 0 0 0 0 0 0 0 0 0 0 0 0 0 0 0 0 0 0 0 0 0 0 0 0 0 0 0 0 0 0 0 0 0 0 0 0 0 0 0 0
0 0 0 0 0 0 0 0 0 0 0 0 0 0 0 0 0 0 0 0 0 0 0 0 0 0 0 0 0 0 0 0 0 0 0 0 0 0 0 0 0 0 0
0 0 0 0 0 0 0 0 0 0 0 0 0 0 0 0 0 0 0 0 0 0 0 0 0 0 0 0 0 0 0 0 0 0 0 0 0 0 0 0 0 0 0
0 0 0 0 0 0 0 0 0 0 0 0 0 0 0 0 0 0 0 0 0 0 0 0 0 0 0 0 0 0 0 0 0 0 0 0 0 0 0 0 0 0 0
0 0 0 0 0 0 0 0 0 0 0 0 0 0 0 0 0 0 0 0 0 0 0 0 0 0 0 0 0 0 0 0 0 0 0 0 0 0 0 0 0 0 0
0 0 0 0 0 0 0 0 0 0 0 0 0 0 0 0 0 0 0 0 0 0 0 0 0 0 0 0 0 0 0 0 0 0 0 0 0 0 0 0 0 0 0
0 0 0 0 0 0 0 0 0 0 0 0 0 0 0 0 0 0 0 0 0 0 0 0 0 0 0 0 0 0 0 0 0 0 0 0 0 0 0 0 0 0 0
0 0 0 0 0 0 0 0 0 0 0 0 0 0 0 0 0 0 0 0 0 0 0 0 0 0 0 0 0 0 0 0 0 0 0 0 0 0 0 0 0 0 0
0 0 0 0 0 0 0 0 0 0 0 0 0 0 0 0 0 0 0 0 0 0 0 0 0 0 0 0 0 0 0 0 0 0 0 0 0 0 0 0 0 0 0
0 0 0 0 0 0 0 0 0 0 0 0 0 0 0 0 0 0 0 0 0 0 0 0 0 0 0 0 0 0 0 0 0 0 0 0 0 0 0 0 0 0 0
0 0 0 0 0 0 0 0 0 0 0 0 0 0 0 0 0 0 0 0 0 0 0 0 0 0 0 0 0 0 0 0 0 0 0 0 0 0 0 0 0 0 0
0 0 0 0 0 0 0 0 0 0 0 0 0 0 0 0 0 0 0 0 0 0 0 0 0 0 0 0 0 0 0 0 0 0 0 0 0 0 0 0 0 0 0
0 0 0 0 0 0 0 0 0 0 0 0 0 0 0 0 0 0 0 0 0 0 0 0 0 0 0 0 0 0 0 0 0 0 0 0 0 0 0 0 0 0 0
0 0 0 0 0 0 0 0 0 0 0 0 0 0 0 0 0 0 0 0 0 0 0 0 0 0 0 0 0 0 0 0 0 0 0 0 0 0 0 0 0 0 0
0 0 0 0 0 0 0 0 0 0 0 0 0 0 0 0 0 0 0 0 0 0 0 0 0 0 0 0 0 0 0 0 0 0 0 0 0 0 0 0 0 0 0
0 0 0 0 0 0 0 0 0 0 0 0 0 0 0 0 0 0 0 0 0 0 0 0 0 0 0 0 0 0 0 0 0 0 0 0 0 0 0 0 0 0 0
0 0 0 0 0 0 0 0 0 0 0 0 0 0 0 0 0 0 0 0 0 0 0 0 0 0 0 0 0 0 0 0 0 0 0 0 0 0 0 0 0 0 0
0 0 0 0 0 0 0 0 0 0 0 0 0 0 0 0 0 0 0 0 0 0 0 0 0 0 0 0 0 0 0 0 0 0 0 0 0 0 0 0 0 0 0
0 0 0 0 0 0 0 0 0 0 0 0 0 0 0 0 0 0 0 0 0 0 0 0 0 0 0 0 0 0 0 0 0 0 0 0 0 0 0 0 0 0 0
0 0 0 0 0 0 0 0 0 0 0 0 0 0 0 0 0 0 0 0 0 0 0 0 0 0 0 0 0 0 0 0 0 0 0 0 0 0 0 0 0 0 0
0 0 0 0 0 0 0 0 0 0 0 0 0 0 0 0 0 0 0 0 0 0 0 0 0 0 0 0 0 0 0 0 0 0 0 0 0 0 0 0 0 0 0
0 0 0 0 0 0 0 0 0 0 0 0 0 0 0 0 0 0 0 0 0 0 0 0 0 0 0 0 0 0 0 0 0 0 0 0 0 0 0 0 0 0 0
0 0 0 0 0 0 0 0 0 0 0 0 0 0 0 0 0 0 0 0 0 0 0 0 0 0 0 0 0 0 0 0 0 0 0 0 0 0 0 0 0 0 0
0 0 0 0 0 0 0 0 0 0 0 0 0 0 0 0 0 0 0 0 0 0 0 0 0 0 0 0 0 0 0 0 0 0 0 0 0 0 0 0 0 0 0
Wind_Speed
2 2 2 2 3 2 2 2 3 4 3 4 4 4 4 4 3 4 4 8 8 8 9 10 10 10 10 10 9 9 9 8 8 8 7 7 7 7 6 5 5 5 5
2 2 2 2 3 3 3 2 3 3 2 3 4 4 4 3 3 3 3 5 7 8 8 9 9 10 10 9 9 9 8 8 8 7 7 7 7 7 7 6 6 5 5
2 2 2 2 2 2 2 2 3 2 2 3 3 3 3 3 3 3 3 3 3 6 7 8 8 9 8 8 8 7 7 6 6 6 7 7 7 7 7 6 6 6 6
3 2 2 2 2 2 2 2 2 2 2 2 2 2 2 2 2 3 2 2 2 3 5 7 7 8 8 8 7 7 7 6 6 6 6 7 7 7 7 7 6 6 5
2 2 2 2 2 2 2 2 2 1 2 2 2 1 1 2 2 1 2 3 3 2 3 5 5 6 7 8 7 7 7 7 6 6 7 7 7 7 6 7 6 6 5
2 2 2 2 2 2 2 1 2 1 1 1 1 1 1 1 1 1 2 2 2 3 3 3 2 4 5 6 7 7 6 6 6 6 7 7 7 6 6 6 6 6 6
2 2 1 2 1 1 1 1 1 2 1 0 0 0 1 1 1 1 1 1 2 3 2 3 2 2 2 4 5 7 7 6 6 6 6 6 6 6 6 6 6 6 6
1 1 1 1 1 1 1 1 1 0 1 1 2 2 1 2 1 1 1 1 1 2 2 2 2 2 2 2 5 6 7 6 5 6 6 5 5 6 6 6 6 6 5
1 1 1 1 1 1 1 0 0 0 0 1 2 3 2 1 1 1 1 0 1 1 1 2 2 2 2 2 2 5 6 5 5 5 5 5 5 5 5 6 6 6 6
2 1 1 1 1 1 1 1 1 1 2 1 0 2 3 2 2 1 1 1 1 1 2 1 2 2 2 2 3 5 6 6 5 4 5 5 4 4 4 5 5 5 5
2 2 2 1 1 1 1 1 1 2 2 2 1 1 1 1 3 2 1 0 0 0 1 2 1 2 2 2 2 5 5 5 5 4 4 4 4 3 3 4 4 4 5
2 2 2 2 2 2 2 2 2 2 2 2 2 2 2 1 1 1 2 2 1 0 1 1 1 1 1 1 2 4 4 4 5 4 4 4 4 3 3 3 3 4 4
3 3 3 3 3 3 3 2 3 2 3 2 2 2 2 2 2 2 2 2 2 1 1 1 0 1 1 1 1 2 2 3 4 4 4 4 3 3 3 3 3 3 3
3 4 4 4 4 3 3 3 3 3 3 3 3 2 2 2 2 2 2 3 3 2 2 1 0 1 1 2 3 4 1 2 3 4 4 3 3 3 3 3 3 3 3
3 4 4 5 4 4 4 3 3 3 3 3 3 3 2 2 2 2 3 4 4 3 2 1 1 1 1 2 2 3 2 2 2 3 4 3 3 3 3 3 3 3 3
4 4 5 5 5 5 5 4 4 3 4 3 2 3 3 3 2 3 3 3 4 4 3 1 2 2 2 2 2 3 2 0 1 2 3 3 3 3 3 3 3 2 3
5 5 5 5 5 5 5 4 5 4 5 4 4 4 4 4 3 3 3 3 3 4 4 3 2 3 3 3 2 3 3 2 0 1 2 3 3 3 3 3 3 2 2
6 6 5 6 5 5 5 6 5 5 5 5 5 5 5 3 4 4 3 4 3 4 4 4 3 3 3 3 3 3 3 2 2 1 1 3 3 3 3 3 3 2 2
7 6 6 6 6 6 6 6 6 6 6 6 5 5 5 5 5 4 5 4 3 3 4 4 4 3 3 3 3 3 3 2 3 1 1 2 2 2 3 3 3 3 2
7 7 7 6 6 6 6 6 6 6 6 6 5 6 6 6 6 6 5 5 4 4 4 4 4 3 3 3 3 3 3 2 2 2 2 2 1 2 1 2 2 2 2
6 6 6 6 6 6 5 6 6 6 6 6 6 6 6 5 5 5 4 4 4 4 4 4 4 4 3 3 3 3 3 3 2 2 2 2 1 1 1 1 1 1 2
6 6 6 6 6 5 3 4 6 6 6 7 6 6 6 6 6 6 6 6 6 6 5 5 5 5 5 4 3 4 3 3 3 1 3 2 2 2 2 1 2 1 0
5 6 6 6 6 5 5 7 8 7 7 7 6 6 5 4 6 6 7 8 7 7 7 7 6 6 5 4 4 4 4 4 4 3 3 3 2 2 2 1 2 1 1
5 5 6 6 6 4 4 6 7 8 7 7 7 7 7 6 5 6 6 6 6 6 6 6 6 5 5 4 5 5 5 5 4 3 3 4 3 3 2 2 1 0 1
5 5 5 6 6 5 5 5 6 6 7 7 7 7 7 7 4 5 6 6 6 5 4 4 4 4 4 4 5 5 4 4 4 3 2 3 3 3 3 3 1 1 2
4 5 5 5 5 5 3 4 7 5 6 6 5 5 5 6 5 5 6 6 6 5 5 5 5 6 6 5 6 6 5 5 4 3 2 3 3 3 3 2 2 2 2
Wind_Direction
68 72 74 66 61 62 63 47 47 59 56 56 56 54 57 57 58 60 73 66 48 43 47 47 47 51 53 53 51 52 53 50 49 46 43 41 39 37 34 38 41 41 42
67 68 70 63 57 51 49 55 61 65 65 63 55 48 47 50 49 58 61 79 67 51 50 49 49 50 51 51 50 49 49 50 47 45 42 37 34 33 32 34 36 38 39
62 65 63 68 61 59 59 51 61 53 62 69 62 50 45 41 40 46 53 45 71 73 60 53 50 49 48 48 49 49 48 49 44 42 39 35 32 31 32 31 32 33 35
61 61 63 66 60 58 55 56 47 59 61 55 49 44 46 51 40 39 50 61 50 52 75 64 51 46 44 45 42 45 47 46 44 43 38 34 30 34 36 32 33 33 34
69 72 59 59 65 60 52 51 48 44 60 53 45 33 26 41 36 33 45 49 55 55 64 90 77 50 41 39 37 44 47 47 45 47 43 36 36 36 35 32 33 34 37
77 78 86 83 74 73 59 55 74 59 43 42 46 44 40 46 27 21 26 41 38 45 42 53 86 92 64 41 33 34 38 39 41 44 41 36 36 35 33 30 30 33 37
97 93 92 87 67 70 56 49 67 100 87 355 272 98 132 113 46 74 23 26 59 49 38 54 41 33 85 83 44 26 27 28 31 34 32 32 33 32 32 32 29 32 34
120 116 129 117 112 70 72 67 67 29 68 312 306 282 211 165 130 80 79 31 31 59 35 32 42 40 19 30 66 38 18 12 20 23 22 28 30 29 29 27 26 28 27
153 167 154 139 141 179 144 139 155 246 277 297 319 310 297 359 84 149 73 119 58 31 34 29 29 28 24 16 35 56 21 5 9 14 16 16 19 23 23 22 23 24 23
176 196 190 193 175 197 190 220 251 271 274 266 274 324 330 351 284 209 178 112 50 29 20 26 22 22 22 20 43 33 16 0 358 2 3 5 10 18 21 19 16 18 15
191 206 213 197 205 213 220 225 241 263 260 283 285 271 291 285 281 289 271 246 169 61 16 360 1 15 14 12 13 30 10 353 348 350 354 353 353 0 7 8 6 7 6
201 212 219 214 222 228 227 230 228 240 267 273 273 270 277 284 296 297 286 283 293 20 347 3 338 5 349 343 23 20 355 347 344 342 341 337 340 342 345 346 348 354 353
205 214 214 222 221 228 230 230 237 238 236 247 263 276 288 295 299 293 293 296 290 277 249 230 268 320 318 322 24 350 328 331 331 329 328 324 321 322 326 330 333 334 334
215 216 214 219 221 224 225 223 236 234 238 233 242 254 269 281 286 289 294 290 277 258 242 241 228 302 331 329 17 294 292 339 326 325 320 314 305 301 302 308 310 311 312
227 226 219 218 218 218 224 225 233 230 237 242 240 237 248 262 270 278 275 275 283 279 269 260 291 325 315 333 336 301 311 25 329 327 323 318 307 298 292 290 292 297 303
224 221 223 222 217 214 217 220 233 237 236 234 246 253 248 251 256 258 260 263 266 275 280 295 285 295 308 301 326 306 312 269 274 325 326 323 313 306 298 291 291 297 299
226 225 223 222 220 215 216 216 226 225 235 236 228 234 239 246 243 241 243 248 252 257 260 267 276 283 283 296 305 301 305 295 245 40 335 330 325 318 304 299 294 290 296
230 231 226 224 221 221 222 222 223 225 232 239 240 238 241 234 243 251 249 247 246 252 257 265 268 278 283 292 300 299 295 297 291 90 324 323 326 322 316 307 290 277 274
232 230 229 228 225 223 227 227 224 228 233 238 242 242 243 239 236 236 242 248 248 246 251 256 263 273 275 283 289 290 288 291 289 254 241 263 298 308 311 306 290 273 265
233 232 231 232 230 228 230 231 230 235 239 238 243 248 249 246 243 241 241 244 247 246 247 250 258 258 261 273 275 279 282 281 281 295 304 295 264 254 287 302 290 268 257
240 237 235 234 232 231 232 232 232 237 242 242 242 244 248 259 276 266 261 252 246 246 249 252 257 258 255 256 264 269 275 281 281 289 291 288 276 277 240 222 268 290 265
243 241 239 234 234 233 215 229 245 238 242 244 246 246 241 233 234 238 249 257 262 257 256 254 258 258 261 265 272 264 269 274 280 296 286 289 300 301 306 327 45 69 280
241 240 238 236 240 235 209 215 227 241 246 247 245 243 243 238 235 234 223 223 237 248 256 260 264 266 267 269 271 266 265 272 282 290 283 280 283 287 304 11 54 51 5
237 240 241 238 241 238 214 221 222 232 241 244 245 245 243 239 237 244 241 236 237 233 236 242 255 267 274 278 271 272 270 265 265 263 268 275 282 285 296 286 119 98 328
240 238 239 240 240 230 207 218 226 238 237 240 241 244 248 247 233 237 242 243 244 241 225 236 267 279 297 287 279 263 255 252 258 253 250 267 275 283 278 265 196 184 239
242 243 242 242 241 242 210 217 230 238 240 240 240 236 235 247 233 237 241 242 242 244 243 230 228 229 239 229 237 249 251 251 258 257 233 251 257 268 270 258 273 259 226